Flag Weather past 2 weeks in Almería, Spain

Now
63 °F

Passing clouds.


Feels Like: 63 °F
Forecast: 53 / 61 °F
Wind: 2 mph from Northwest

Location: Almeria / Aeropuerto

Current Time: Nov 27, 2014 at 7:54:28 PM

Latest Report: Nov 27, 2014 at 7:00 PM


Visibility: 16 mi

Pressure: 29.47 "Hg

Humidity: 81%

Dew point: 57 °F

Location of AlmeríaLocation

Historic Weather in Almería — Graph

°F

Almería temperature yesterday

Maximum temperature yesterday: 69 °F (at 2:00 PM)
Minimum temperature yesterday: 58 °F (at 8:00 AM)
Average temperature yesterday: 63 °F

Past Weeks' High & Low Weather Summary

 TemperatureHumidityPressure
High78 °F (Nov 23, 12:00 PM)94% (Nov 15, 1:00 AM)30.07 "Hg (Nov 15, 1:00 AM)
Low51 °F (Nov 17, 6:00 AM)37% (Nov 22, 3:00 PM)29.47 "Hg (Nov 27, 6:00 PM)
Average64 °F70%29.93 "Hg
* Reported Nov 12 6:00 PM — Nov 27 6:00 PM, Almería, Weather by CustomWeather, © 2014

Note: Actual official high and low records may vary slightly from our data, if they occured in-between our weather recording intervals... More about our weather records

Advertising

Almería weather history for previous 24 hours

 ConditionsComfort  
Time TempWeatherWind HumidityBarometerVisibility
6:00 PM
Nov 27
64 °FMild.7 mph79%29.47 "HgN/A
5:00 PM65 °FMild.7 mph74%29.50 "HgN/A
4:00 PM65 °FOvercast.9 mph73%29.50 "Hg16 mi
3:00 PM66 °FMild.12 mph72%29.54 "HgN/A
2:00 PM68 °FMild.12 mph69%29.56 "HgN/A
1:00 PM68 °FOvercast.5 mph65%29.60 "Hg19 mi
12:00 PM68 °FMild.7 mph66%29.64 "HgN/A
11:00 AM64 °FMild.6 mph61%29.67 "HgN/A
10:00 AM64 °FOvercast.9 mph70%29.67 "Hg19 mi
9:00 AM60 °FCool.1 mph68%29.67 "HgN/A
8:00 AM57 °FCool.2 mph71%29.68 "HgN/A
7:00 AM57 °FPassing clouds.8 mph67%29.69 "Hg16 mi
6:00 AM56 °FCool.6 mph76%29.69 "HgN/A
5:00 AM56 °FCool.No wind81%29.72 "HgN/A
4:00 AM57 °FCool.10 mph73%29.75 "HgN/A
3:00 AM57 °FCool.5 mph81%29.77 "HgN/A
2:00 AM56 °FCool.8 mph80%29.78 "HgN/A
1:00 AM56 °FCool.2 mph86%29.80 "HgN/A
12:00 AM58 °FCool.2 mph85%29.81 "HgN/A
11:00 PM
Nov 26
61 °FCool.2 mph81%29.83 "HgN/A
10:00 PM61 °FPassing clouds.2 mph84%29.84 "Hg19 mi
9:00 PM61 °FCool.10 mph83%29.85 "HgN/A
8:00 PM62 °FCool.16 mph79%29.85 "HgN/A
7:00 PM63 °FPassing clouds.16 mph75%29.84 "Hg22 mi
Weather by CustomWeather, © 2014

See weather overviewHow to use our weather pages